CW9148 Weather Reports


Display with metric or nautical units.
time (UTC)temp
F
wind
direction
speed
MPH
gust
MPH
rain 1hr
in
rain 24hr
in
rain mn
in
humidity
%
barometer
mb
20220818070840 77 128 0.0 0.0 0.00 0.00 0.00 31 1017.2
20220818070341 77 128 0.0 0.0 0.00 0.00 0.00 31 1017.2
20220818065823 77 96 0.0 0.0 0.00 0.00 0.00 31 1017.3
20220818065323 77 104 0.0 0.0 0.00 0.00 0.00 31 1017.3
20220818064848 77 105 0.0 0.0 0.00 0.00 0.00 31 1017.3
20220818064330 77 115 0.0 0.0 0.00 0.00 0.00 31 1017.3
20220818063829 77 79 0.0 0.0 0.00 0.00 0.00 31 1017.3
20220818063416 77 104 0.0 0.0 0.00 0.00 0.00 31 1017.3
20220818062914 78 98 0.0 0.0 0.00 0.00 0.00 31 1017.2
20220818062832 78 98 0.0 0.0 0.00 0.00 0.00 31 1017.2
20220818062356 78 98 0.0 0.0 0.00 0.00 0.00 31 1017.2
20220818061919 78 92 0.0 0.0 0.00 0.00 0.00 31 1017.2
20220818061836 78 92 0.0 0.0 0.00 0.00 0.00 31 1017.2
20220818061340 78 100 0.0 0.0 0.00 0.00 0.00 31 1017.2
20220818060838 78 106 0.0 0.0 0.00 0.00 0.00 31 1017.2
20220818060404 78 96 0.0 0.0 0.00 0.00 0.00 32 1017.2
20220818055822 78 100 0.0 0.0 0.00 0.00 0.00 31 1017.2
20220818055325 78 96 0.0 0.0 0.00 0.00 0.00 31 1017.2
20220818054828 78 96 0.0 0.0 0.00 0.00 0.00 31 1017.2
20220818054345 78 105 0.0 0.0 0.00 0.00 0.00 30 1017.2
20220818053848 78 100 0.0 0.0 0.00 0.00 0.00 30 1017.2
20220818053330 78 98 0.0 0.0 0.00 0.00 0.00 30 1017.2
20220818052855 79 100 0.0 0.0 0.00 0.00 0.00 30 1017.2
20220818052414 79 94 0.0 0.0 0.00 0.00 0.00 30 1017.2
20220818051919 79 95 0.0 0.0 0.00 0.00 0.00 29 1017.2
20220818051836 79 95 0.0 0.0 0.00 0.00 0.00 29 1017.2
20220818051340 79 89 0.0 0.0 0.00 0.00 0.00 29 1017.2
20220818050823 80 83 0.0 0.0 0.00 0.00 0.00 28 1017.2
20220818050322 80 81 0.0 0.0 0.00 0.00 0.00 27 1017.2
20220818045900 80 75 0.0 0.0 0.00 0.00 0.00 27 1017.2
20220818045818 80 75 0.0 0.0 0.00 0.00 0.00 27 1017.2
20220818045404 80 63 0.0 0.0 0.00 0.00 0.00 28 1017.2
20220818045321 80 63 0.0 0.0 0.00 0.00 0.00 28 1017.2
20220818044825 80 63 0.0 0.0 0.00 0.00 0.00 28 1017.2
20220818044326 80 48 0.0 0.0 0.00 0.00 0.00 27 1017.3
20220818043904 80 51 0.0 0.0 0.00 0.00 0.00 27 1017.3
20220818043346 81 36 0.0 0.0 0.00 0.00 0.00 27 1017.3
20220818042848 81 48 0.0 0.0 0.00 0.00 0.00 26 1017.3
20220818042329 81 52 0.0 0.0 0.00 0.00 0.00 26 1017.3
20220818041908 81 40 0.0 0.0 0.00 0.00 0.00 25 1017.3
20220818041351 81 37 0.0 0.0 0.00 0.00 0.00 25 1017.3
20220818040854 82 33 0.0 0.0 0.00 0.00 0.00 24 1017.3
20220818040336 82 45 0.0 0.0 0.00 0.00 0.00 24 1017.3
20220818035902 82 27 0.0 0.0 0.00 0.00 0.00 23 1017.2
20220818035819 82 27 0.0 0.0 0.00 0.00 0.00 23 1017.2
20220818035400 82 38 0.0 0.0 0.00 0.00 0.00 22 1017.2
20220818034823 83 46 0.0 0.0 0.00 0.00 0.00 21 1017.2
20220818034346 83 34 0.0 0.0 0.00 0.00 0.00 20 1017.1
20220818033829 83 23 0.0 0.0 0.00 0.00 0.00 20 1017.1
20220818033351 83 43 0.0 0.0 0.00 0.00 0.00 20 1017.1
20220818032854 83 25 0.0 0.0 0.00 0.00 0.00 20 1017.2
20220818032419 83 12 0.0 0.0 0.00 0.00 0.00 20 1017.2
20220818032337 83 12 0.0 0.0 0.00 0.00 0.00 20 1017.2
20220818031840 84 3 0.0 0.0 0.00 0.00 0.00 20 1017.2
20220818031342 84 55 0.0 0.0 0.00 0.00 0.00 20 1017.1
20220818030842 84 22 0.0 0.0 0.00 0.00 0.00 21 1017.1
20220818030405 84 9 0.0 0.0 0.00 0.00 0.00 20 1017.1
20220818025907 84 36 0.0 0.0 0.00 0.00 0.00 21 1017.2
20220818025410 84 40 0.0 0.0 0.00 0.00 0.00 20 1017.2
20220818024848 84 13 0.0 0.0 0.00 0.00 0.00 20 1017.2
20220818024329 84 18 0.0 0.0 0.00 0.00 0.00 21 1017.2
20220818023853 84 25 0.0 0.0 0.00 0.00 0.00 21 1017.2
20220818023333 84 19 0.0 0.0 0.00 0.00 0.00 21 1017.2
20220818022838 84 37 0.0 0.0 0.00 0.00 0.00 21 1017.2
20220818022358 84 13 0.0 0.0 0.00 0.00 0.00 21 1017.2
20220818021840 84 11 0.0 0.0 0.00 0.00 0.00 21 1017.2
20220818021321 84 7 0.0 0.0 0.00 0.00 0.00 21 1017.0
20220818020904 84 13 0.0 0.0 0.00 0.00 0.00 21 1017.0
20220818020319 84 13 0.0 0.0 0.00 0.00 0.00 20 1017.0
20220818015822 84 3 0.0 0.0 0.00 0.00 0.00 20 1016.9
20220818015347 85 338 0.0 0.0 0.00 0.00 0.00 20 1016.9
20220818014850 85 300 0.0 0.0 0.00 0.00 0.00 19 1016.9
20220818014352 85 11 0.0 0.0 0.00 0.00 0.00 20 1017.2
20220818013850 85 11 0.0 0.0 0.00 0.00 0.00 20 1017.2
20220818013416 85 15 0.0 0.0 0.00 0.00 0.00 20 1017.2
20220818013333 85 15 0.0 0.0 0.00 0.00 0.00 20 1017.2
20220818012838 85 15 0.0 0.0 0.00 0.00 0.00 20 1017.5
20220818012319 85 11 0.0 0.0 0.00 0.00 0.00 20 1017.5
20220818011919 85 360 0.0 0.0 0.00 0.00 0.00 20 1017.5
20220818011400 85 345 0.0 0.0 0.00 0.00 0.00 19 1017.4
20220818011318 85 345 0.0 0.0 0.00 0.00 0.00 19 1017.4
20220818010903 85 335 0.0 0.0 0.00 0.00 0.00 19 1017.4
20220818010344 86 297 0.0 0.0 0.00 0.00 0.00 19 1017.4
20220818005847 86 297 0.0 0.0 0.00 0.00 0.00 19 1017.2
20220818005409 86 297 0.0 0.0 0.00 0.00 0.00 19 1017.2
20220818005327 86 297 0.0 0.0 0.00 0.00 0.00 19 1017.2
20220818004909 86 290 0.0 0.0 0.00 0.00 0.00 19 1017.2
20220818004411 86 295 0.0 0.0 0.00 0.00 0.00 19 1017.0
20220818004327 86 295 0.0 0.0 0.00 0.00 0.00 19 1017.0
20220818003910 87 296 0.0 0.0 0.00 0.00 0.00 18 1017.0
20220818003347 87 292 0.0 0.0 0.00 0.00 0.00 18 1017.0
20220818002849 87 319 0.0 0.0 0.00 0.00 0.00 17 1016.9
20220818002349 88 351 0.0 0.0 0.00 0.00 0.00 17 1016.9
20220818001852 88 11 0.0 0.0 0.00 0.00 0.00 16 1016.9
20220818001412 89 300 0.0 0.0 0.00 0.00 0.00 16 1016.7
20220818000833 88 314 0.0 0.0 0.00 0.00 0.00 17 1016.7
20220818000336 88 338 0.0 0.0 0.00 0.00 0.00 17 1016.7
20220817235900 88 305 0.0 0.0 0.00 0.00 0.00 17 1016.9
20220817235818 88 305 0.0 0.0 0.00 0.00 0.00 17 1016.9
20220817235319 88 325 0.0 0.0 0.00 0.00 0.00 17 1016.9
20220817234819 87 277 0.0 0.0 0.00 0.00 0.00 17 1016.9
20220817234322 87 296 0.0 0.0 0.00 0.00 0.00 17 1017.0
20220817233825 87 298 0.0 0.0 0.00 0.00 0.00 17 1017.0
20220817233328 87 300 0.0 0.0 0.00 0.00 0.00 16 1017.0
20220817232848 88 299 0.0 0.0 0.00 0.00 0.00 17 1016.9
20220817232350 88 303 0.0 0.0 0.00 0.00 0.00 16 1016.9
20220817231852 88 341 0.0 0.0 0.00 0.00 0.00 16 1016.9
20220817231332 88 297 0.0 0.0 0.00 0.00 0.00 16 1016.9
20220817230857 88 300 0.0 0.0 0.00 0.00 0.00 16 1016.9
20220817230335 89 304 0.0 0.0 0.00 0.00 0.00 16 1016.9
20220817225818 89 296 0.0 0.0 0.00 0.00 0.00 16 1017.0
20220817225342 89 313 0.0 0.0 0.00 0.00 0.00 16 1017.0
20220817224906 89 281 0.0 0.0 0.00 0.00 0.00 16 1017.0
20220817224323 89 283 0.0 0.0 0.00 0.00 0.00 15 1017.0
20220817223849 90 311 0.0 0.0 0.00 0.00 0.00 13 1017.0
20220817223351 90 300 0.0 0.0 0.00 0.00 0.00 13 1017.0
20220817222834 90 298 0.0 0.0 0.00 0.00 0.00 13 1017.1
20220817222339 91 6 0.0 0.0 0.00 0.00 0.00 13 1017.1
20220817221918 91 14 0.0 0.0 0.00 0.00 0.00 12 1017.1
20220817221318 91 5 0.0 0.0 0.00 0.00 0.00 12 1017.2
20220817220904 92 17 0.0 0.0 0.00 0.00 0.00 12 1017.2
20220817220821 92 17 0.0 0.0 0.00 0.00 0.00 12 1017.2
20220817220407 92 42 0.0 0.0 0.00 0.00 0.00 11 1017.2
20220817220325 92 42 0.0 0.0 0.00 0.00 0.00 11 1017.2
20220817215901 91 13 0.0 0.0 0.00 0.00 0.00 11 1017.3
20220817215819 91 13 0.0 0.0 0.00 0.00 0.00 11 1017.3
20220817215320 91 28 0.0 0.0 0.00 0.00 0.00 12 1017.3
20220817214846 91 17 0.0 0.0 0.00 0.00 0.00 12 1017.3
20220817214406 91 10 0.0 0.0 0.00 0.00 0.00 12 1017.3
20220817213828 91 328 0.0 0.0 0.00 0.00 0.00 13 1017.3
20220817213410 91 4 0.0 0.0 0.00 0.00 0.00 12 1017.3
20220817213328 91 4 0.0 0.0 0.00 0.00 0.00 12 1017.3
20220817212914 91 316 0.0 0.0 0.00 0.00 0.00 12 1017.3
20220817212418 92 21 0.0 0.0 0.00 0.00 0.00 12 1017.3
20220817211859 92 2 0.0 0.0 0.00 0.00 0.00 12 1017.3
20220817211354 91 323 0.0 0.0 0.00 0.00 0.00 12 1017.4
20220817210853 91 324 0.0 0.0 0.00 0.00 0.00 12 1017.4
20220817210418 90 302 0.0 0.0 0.00 0.00 0.00 12 1017.4
20220817210335 90 302 0.0 0.0 0.00 0.00 0.00 12 1017.4
20220817205817 90 338 0.0 0.0 0.00 0.00 0.00 12 1017.5
20220817205340 89 315 0.0 0.0 0.00 0.00 0.00 12 1017.5
20220817204834 89 296 0.0 0.0 0.00 0.00 0.00 12 1017.5
20220817204337 90 4 0.0 0.0 0.00 0.00 0.00 12 1017.5
20220817203839 90 16 0.0 0.0 0.00 0.00 0.00 12 1017.5
20220817203320 90 6 0.0 0.0 0.00 0.00 0.00 12 1017.5
20220817202818 91 304 0.0 0.0 0.00 0.00 0.00 11 1017.6
20220817202319 91 17 0.0 0.0 0.00 0.00 0.00 10 1017.6
20220817201842 90 354 0.0 0.0 0.00 0.00 0.00 11 1017.6
20220817201342 90 7 0.0 0.0 0.00 0.00 0.00 10 1017.7
20220817200841 90 340 0.0 0.0 0.00 0.00 0.00 10 1017.7
20220817200402 89 13 0.0 0.0 0.00 0.00 0.00 11 1017.7
20220817200319 89 13 0.0 0.0 0.00 0.00 0.00 11 1017.7
20220817195817 88 13 0.0 0.0 0.00 0.00 0.00 12 1017.8
20220817195342 88 10 0.0 0.0 0.00 0.00 0.00 13 1017.8
20220817194843 88 17 0.0 0.0 0.00 0.00 0.00 12 1017.8
20220817194403 88 7 0.0 0.0 0.00 0.00 0.00 12 1017.9
20220817193845 87 4 0.0 0.0 0.00 0.00 0.00 12 1017.9
20220817193348 87 333 0.0 0.0 0.00 0.00 0.00 12 1017.9
20220817192849 87 335 0.0 0.0 0.00 0.00 0.00 12 1018.0
20220817192349 87 335 0.0 0.0 0.00 0.00 0.00 14 1018.0
20220817191852 87 335 0.0 0.0 0.00 0.00 0.00 14 1018.0
20220817191333 87 231 0.0 0.0 0.00 0.00 0.00 13 1018.2
20220817190857 87 221 0.0 0.0 0.00 0.00 0.00 13 1018.2
20220817190341 87 221 0.0 0.0 0.00 0.00 0.00 13 1018.2
20220817185856 86 221 0.0 0.0 0.00 0.00 0.00 13 1018.2
20220817185401 86 221 0.0 0.0 0.00 0.00 0.00 13 1018.2
20220817184905 86 221 0.0 0.0 0.00 0.00 0.00 14 1018.2
20220817184823 86 221 0.0 0.0 0.00 0.00 0.00 14 1018.2
20220817184406 86 221 0.0 0.0 0.00 0.00 0.00 15 1018.3
20220817183906 86 221 0.0 0.0 0.00 0.00 0.00 14 1018.3
20220817183824 86 221 0.0 0.0 0.00 0.00 0.00 14 1018.3
20220817183348 86 221 0.0 0.0 0.00 0.00 0.00 15 1018.3
20220817182911 86 221 0.0 0.0 0.00 0.00 0.00 15 1018.3
20220817182331 86 221 0.0 0.0 0.00 0.00 0.00 15 1018.3
20220817181829 86 221 0.0 0.0 0.00 0.00 0.00 15 1018.3
20220817181353 86 221 0.0 0.0 0.00 0.00 0.00 15 1018.3
20220817180917 86 221 0.0 0.0 0.00 0.00 0.00 15 1018.3
20220817180834 86 221 0.0 0.0 0.00 0.00 0.00 15 1018.3
20220817180359 86 221 0.0 0.0 0.00 0.00 0.00 16 1018.3
20220817180317 86 221 0.0 0.0 0.00 0.00 0.00 16 1018.3
20220817175840 86 263 0.0 0.0 0.00 0.00 0.00 16 1018.0
20220817175332 85 264 0.0 0.0 0.00 0.00 0.00 18 1018.0
20220817174854 85 286 0.0 0.0 0.00 0.00 0.00 15 1018.0
20220817174316 84 286 0.0 0.0 0.00 0.00 0.00 16 1017.9
20220817173855 84 286 0.0 0.0 0.00 0.00 0.00 14 1017.9
20220817173333 84 286 0.0 0.0 0.00 0.00 0.00 15 1017.9
20220817172834 84 39 0.0 0.0 0.00 0.00 0.00 16 1017.7
20220817172335 83 59 0.0 0.0 0.00 0.00 0.00 15 1017.7
20220817171837 83 59 0.0 0.0 0.00 0.00 0.00 16 1017.7
20220817171400 82 59 0.0 0.0 0.00 0.00 0.00 16 1017.7
20220817170914 82 59 0.0 0.0 0.00 0.00 0.00 22 1017.7
20220817170355 82 59 0.0 0.0 0.00 0.00 0.00 25 1017.7
20220817165817 82 59 0.0 0.0 0.00 0.00 0.00 24 1017.6
20220817165342 82 59 0.0 0.0 0.00 0.00 0.00 24 1017.6
20220817164839 82 59 0.0 0.0 0.00 0.00 0.00 23 1017.6
20220817164404 82 59 0.0 0.0 0.00 0.00 0.00 22 1017.4
20220817163844 82 59 0.0 0.0 0.00 0.00 0.00 22 1017.4
20220817163408 81 59 0.0 0.0 0.00 0.00 0.00 22 1017.4
20220817162825 81 59 0.0 0.0 0.00 0.00 0.00 21 1017.4
20220817162327 81 59 0.0 0.0 0.00 0.00 0.00 21 1017.4
20220817161914 81 59 0.0 0.0 0.00 0.00 0.00 22 1017.4
20220817161355 81 46 0.0 0.0 0.00 0.00 0.00 24 1017.4
20220817160918 81 32 0.0 0.0 0.00 0.00 0.00 23 1017.4
20220817160835 81 32 0.0 0.0 0.00 0.00 0.00 23 1017.4
20220817160417 81 32 0.0 0.0 0.00 0.00 0.00 23 1017.4
20220817160334 81 32 0.0 0.0 0.00 0.00 0.00 23 1017.4
20220817155836 81 32 0.0 0.0 0.00 0.00 0.00 22 1017.2
20220817155421 81 32 0.0 0.0 0.00 0.00 0.00 21 1017.2
20220817155339 81 32 0.0 0.0 0.00 0.00 0.00 21 1017.2
20220817154838 82 32 0.0 0.0 0.00 0.00 0.00 22 1017.2
20220817154412 82 34 0.0 0.0 0.00 0.00 0.00 19 1017.1
20220817154329 82 34 0.0 0.0 0.00 0.00 0.00 19 1017.1
20220817153852 82 30 0.0 0.0 0.00 0.00 0.00 17 1017.1
20220817153333 82 40 0.0 0.0 0.00 0.00 0.00 14 1017.1
20220817152917 81 26 0.0 0.0 0.00 0.00 0.00 14 1017.0
20220817152318 81 38 0.0 0.0 0.00 0.00 0.00 14 1017.0
20220817151838 81 30 0.0 0.0 0.00 0.00 0.00 14 1017.0
20220817151403 81 21 0.0 0.0 0.00 0.00 0.00 14 1016.9
20220817150824 81 19 0.0 0.0 0.00 0.00 0.00 15 1016.9
20220817150346 80 29 0.0 0.0 0.00 0.00 0.00 16 1016.9
20220817145824 80 17 0.0 0.0 0.00 0.00 0.00 17 1016.9
20220817145321 80 32 0.0 0.0 0.00 0.00 0.00 17 1016.9
20220817144906 79 31 0.0 0.0 0.00 0.00 0.00 18 1016.9
20220817144348 79 38 0.0 0.0 0.00 0.00 0.00 17 1016.8
20220817143824 78 24 0.0 0.0 0.00 0.00 0.00 18 1016.8
20220817143411 78 25 0.0 0.0 0.00 0.00 0.00 19 1016.8
20220817143328 78 25 0.0 0.0 0.00 0.00 0.00 19 1016.8
20220817142852 78 27 0.0 0.0 0.00 0.00 0.00 20 1016.7
20220817142334 78 25 0.0 0.0 0.00 0.00 0.00 19 1016.7
20220817141855 79 30 0.0 0.0 0.00 0.00 0.00 19 1016.7
20220817141333 79 36 0.0 0.0 0.00 0.00 0.00 18 1016.6
20220817140856 78 25 0.0 0.0 0.00 0.00 0.00 18 1016.6
20220817140401 77 27 0.0 0.0 0.00 0.00 0.00 18 1016.6
20220817135843 77 28 0.0 0.0 0.00 0.00 0.00 19 1016.6
20220817135356 77 32 0.0 0.0 0.00 0.00 0.00 19 1016.6
20220817134858 77 38 0.0 0.0 0.00 0.00 0.00 18 1016.6
20220817134318 77 32 0.0 0.0 0.00 0.00 0.00 18 1016.6
20220817133838 78 32 0.0 0.0 0.00 0.00 0.00 18 1016.6
20220817133319 78 32 0.0 0.0 0.00 0.00 0.00 18 1016.6
20220817132917 78 32 0.0 0.0 0.00 0.00 0.00 18 1016.3
20220817132835 78 32 0.0 0.0 0.00 0.00 0.00 18 1016.3
20220817132401 78 32 0.0 0.0 0.00 0.00 0.00 18 1016.3
20220817132318 78 32 0.0 0.0 0.00 0.00 0.00 18 1016.3
20220817131819 78 32 0.0 0.0 0.00 0.00 0.00 18 1016.3
20220817131322 78 32 0.0 0.0 0.00 0.00 0.00 18 1016.1
20220817130822 78 32 0.0 0.0 0.00 0.00 0.00 18 1016.1
20220817130346 79 32 0.0 0.0 0.00 0.00 0.00 17 1016.1
20220817125828 79 32 0.0 0.0 0.00 0.00 0.00 18 1016.1
20220817125331 79 32 0.0 0.0 0.00 0.00 0.00 17 1016.1
20220817124852 79 32 0.0 0.0 0.00 0.00 0.00 17 1016.1
20220817124416 79 32 0.0 0.0 0.00 0.00 0.00 17 1016.1
20220817124334 79 32 0.0 0.0 0.00 0.00 0.00 17 1016.1
20220817123837 79 32 0.0 0.0 0.00 0.00 0.00 18 1016.1
20220817123317 79 32 0.0 0.0 0.00 0.00 0.00 18 1016.1
20220817122821 79 32 0.0 0.0 0.00 0.00 0.00 17 1015.7
20220817122402 79 32 0.0 0.0 0.00 0.00 0.00 18 1015.7
20220817121822 79 32 0.0 0.0 0.00 0.00 0.00 18 1015.7
20220817121346 79 32 0.0 0.0 0.00 0.00 0.00 18 1015.5
20220817120849 79 32 0.0 0.0 0.00 0.00 0.00 18 1015.5
20220817120348 79 32 0.0 0.0 0.00 0.00 0.00 18 1015.5
20220817115829 79 32 0.0 0.0 0.00 0.00 0.00 18 1015.5
20220817115332 79 32 0.0 0.0 0.00 0.00 0.00 18 1015.5
20220817114838 79 32 0.0 0.0 0.00 0.00 0.00 18 1015.5
20220817114342 79 32 0.0 0.0 0.00 0.00 0.00 18 1015.4
20220817113820 79 32 0.0 0.0 0.00 0.00 0.00 18 1015.4
20220817113324 79 32 0.0 0.0 0.00 0.00 0.00 18 1015.4
20220817112825 79 29 0.0 0.0 0.00 0.00 0.00 18 1015.4
20220817112350 79 29 0.0 0.0 0.00 0.00 0.00 18 1015.4
20220817111846 79 31 0.0 0.0 0.00 0.00 0.00 18 1015.4
20220817111348 79 31 0.0 0.0 0.00 0.00 0.00 18 1015.5
20220817110914 79 33 0.0 0.0 0.00 0.00 0.00 18 1015.5
20220817110417 79 33 0.0 0.0 0.00 0.00 0.00 18 1015.5
20220817105817 79 32 0.0 0.0 0.00 0.00 0.00 18 1015.5
20220817105317 79 31 0.0 0.0 0.00 0.00 0.00 18 1015.5
20220817104840 79 31 0.0 0.0 0.00 0.00 0.00 18 1015.5
20220817104406 79 31 0.0 0.0 0.00 0.00 0.00 18 1015.4
20220817104324 79 31 0.0 0.0 0.00 0.00 0.00 18 1015.4
20220817103848 79 31 0.0 0.0 0.00 0.00 0.00 18 1015.4
20220817103328 80 31 0.0 0.0 0.00 0.00 0.00 17 1015.4
20220817102315 80 31 0.0 0.0 0.00 0.00 0.00 17 1015.4
20220817101904 80 31 0.0 0.0 0.00 0.00 0.00 17 1015.4
20220817101821 80 31 0.0 0.0 0.00 0.00 0.00 17 1015.4
20220817101326 79 31 0.0 0.0 0.00 0.00 0.00 18 1015.4
20220817100827 79 31 0.0 0.0 0.00 0.00 0.00 18 1015.4
20220817100243 80 31 0.0 0.0 0.00 0.00 0.00 17 1015.4
20220817095415 80 31 0.0 0.0 0.00 0.00 0.00 17 1015.4
20220817094836 81 31 0.0 0.0 0.00 0.00 0.00 17 1015.4
20220817094421 81 31 0.0 0.0 0.00 0.00 0.00 17 1015.2
20220817094338 81 31 0.0 0.0 0.00 0.00 0.00 17 1015.2
20220817093841 81 31 0.0 0.0 0.00 0.00 0.00 16 1015.2
20220817093402 81 31 0.0 0.0 0.00 0.00 0.00 16 1015.2
20220817093320 81 31 0.0 0.0 0.00 0.00 0.00 16 1015.2
20220817092841 81 34 0.0 0.0 0.00 0.00 0.00 16 1015.1
20220817092257 81 32 0.0 0.0 0.00 0.00 0.00 16 1015.1
20220817091352 81 33 0.0 0.0 0.00 0.00 0.00 17 1015.0
20220817090855 81 36 0.0 0.0 0.00 0.00 0.00 17 1015.0
20220817090335 81 29 0.0 0.0 0.00 0.00 0.00 16 1015.0
20220817085900 81 38 0.0 0.0 0.00 0.00 0.00 16 1015.0
20220817085339 81 37 0.0 0.0 0.00 0.00 0.00 16 1015.0
20220817084845 81 40 0.0 0.0 0.00 0.00 0.00 16 1015.0
20220817084405 81 33 0.0 0.0 0.00 0.00 0.00 16 1015.0
20220817083906 81 29 0.0 0.0 0.00 0.00 0.00 16 1015.0
20220817083824 81 29 0.0 0.0 0.00 0.00 0.00 16 1015.0
20220817083327 81 34 0.0 0.0 0.00 0.00 0.00 16 1015.0
20220817082831 80 29 0.0 0.0 0.00 0.00 0.00 17 1015.0
20220817082418 80 33 0.0 0.0 0.00 0.00 0.00 17 1015.0
20220817082335 80 33 0.0 0.0 0.00 0.00 0.00 17 1015.0
20220817081835 80 40 0.0 0.0 0.00 0.00 0.00 17 1015.0
20220817081339 80 40 0.0 0.0 0.00 0.00 0.00 16 1015.0
20220817080903 80 40 0.0 0.0 0.00 0.00 0.00 16 1015.0
20220817080323 80 34 0.0 0.0 0.00 0.00 0.00 16 1015.0
20220817075843 80 38 0.0 0.0 0.00 0.00 0.00 16 1015.1
20220817075345 79 36 0.0 0.0 0.00 0.00 0.00 17 1015.1
20220817074828 79 42 0.0 0.0 0.00 0.00 0.00 17 1015.1
20220817074413 79 46 0.0 0.0 0.00 0.00 0.00 17 1015.0
20220817073835 79 51 0.0 0.0 0.00 0.00 0.00 17 1015.0
20220817073406 79 40 0.0 0.0 0.00 0.00 0.00 17 1015.0
20220817072848 79 40 0.0 0.0 0.00 0.00 0.00 17 1015.0
20220817072410 79 36 0.0 0.0 0.00 0.00 0.00 17 1015.0
20220817072327 79 36 0.0 0.0 0.00 0.00 0.00 17 1015.0
20220817071825 80 36 0.0 0.0 0.00 0.00 0.00 17 1015.0
20220817071342 81 36 0.0 0.0 0.00 0.00 0.00 17 1014.9